sat.trackr.live / text

‹ back to catalog

STARLINK-31899

NORAD 59850 · 2024-097R

PAYLOAD ACTIVE UNKNOWN

§ Identity

Operator
Country
US
Launch date
2024-05-23
Launch site
AFETR
Launch vehicle
Mass (kg)
RCS (m²)

Purposes: comms

External: N2YO · Heavens-Above · Gunter

§ Orbital elements

Epoch: 2026-09-21T00:55:29.418816Z

Period
94.27 min
Inclination
43.0026°
Eccentricity
0.0001382
Mean motion
15.27576743 rev/d
Perigee alt
482.1 km
Apogee alt
484.0 km
Semi-major
6,861.2 km
B*
3.3058e-5
RAAN
251.0691°
Arg perigee
274.6713°
Mean anomaly
85.3981°
Rev number
13,179

§ Raw data

STARLINK-318991 59850U 24097R   26264.03853494  .00000648  00000+0  33058-4 0  99952 59850  43.0026 251.0691 0001382 274.6713  85.3981 15.27576743131794

JSON: /api/v1/satellites/59850 · /tle

For live sub-satellite position, see the globe view (requires WebGL).

§ Visibility from observer

Set your observer location to see the next 7 days of passes ≥ 10°. The values pass through the URL so the page stays shareable.

No JS? Fill the form by hand. The geolocation button needs JavaScript.